contact:dominique.lefevre@mio.osupytheas.fr, maurice.libes@osupytheas.fr, didier.mallarino@osupytheas.fr
Project:EMSO http://www.emso-fr.org/EMSO-France
Depth: 2436.0 m
Title:EMSO Ligure Ouest : Data MII capteur MICROCAT
DateTime_Computer,Latitude,Longitude,Temperature,Conductivity,Pressure,DateTime_Instrument
DateTime_Computer,Latitude,Longitude,degC,S m-1,dbar,DateTime_Instrument
2022-02-19T00:00:34Z,42.805,6.029,13.3000,4.60033,2470.507,2022-2-19T02:02:08Z
2022-02-19T00:03:37Z,42.805,6.029,13.3005,4.60039,2470.53,2022-2-19T02:05:11Z
2022-02-19T00:06:40Z,42.805,6.029,13.3000,4.60033,2470.544,2022-2-19T02:08:14Z
2022-02-19T00:09:43Z,42.805,6.029,13.3004,4.60032,2470.53,2022-2-19T02:11:17Z
2022-02-19T00:12:46Z,42.805,6.029,13.2997,4.60033,2470.507,2022-2-19T02:14:20Z
2022-02-19T00:15:49Z,42.805,6.029,13.3005,4.60035,2470.53,2022-2-19T02:17:23Z
2022-02-19T00:18:53Z,42.805,6.029,13.3000,4.60042,2470.53,2022-2-19T02:20:26Z
2022-02-19T00:21:56Z,42.805,6.029,13.2999,4.60038,2470.507,2022-2-19T02:23:30Z
2022-02-19T00:24:59Z,42.805,6.029,13.2998,4.60037,2470.507,2022-2-19T02:26:33Z
2022-02-19T00:28:02Z,42.805,6.029,13.2999,4.60031,2470.483,2022-2-19T02:29:36Z
2022-02-19T00:31:05Z,42.805,6.029,13.3000,4.60033,2470.46,2022-2-19T02:32:39Z
2022-02-19T00:34:08Z,42.805,6.029,13.2998,4.60043,2470.507,2022-2-19T02:35:42Z
2022-02-19T00:37:11Z,42.805,6.029,13.3004,4.60037,2470.483,2022-2-19T02:38:45Z
2022-02-19T00:40:14Z,42.805,6.029,13.3001,4.60033,2470.507,2022-2-19T02:41:48Z
2022-02-19T00:43:18Z,42.805,6.029,13.3004,4.60034,2470.483,2022-2-19T02:44:51Z
2022-02-19T00:46:21Z,42.805,6.029,13.3002,4.60033,2470.544,2022-2-19T02:47:55Z
2022-02-19T00:49:24Z,42.805,6.029,13.3001,4.60039,2470.483,2022-2-19T02:50:58Z
2022-02-19T00:52:27Z,42.805,6.029,13.3003,4.60031,2470.497,2022-2-19T02:54:01Z
2022-02-19T00:55:30Z,42.805,6.029,13.3000,4.60034,2470.483,2022-2-19T02:57:04Z
2022-02-19T00:58:33Z,42.805,6.029,13.2998,4.60031,2470.483,2022-2-19T03:00:07Z
2022-02-19T01:01:36Z,42.805,6.029,13.2999,4.60030,2470.497,2022-2-19T03:03:10Z
2022-02-19T01:04:39Z,42.805,6.029,13.2999,4.60040,2470.497,2022-2-19T03:06:13Z
2022-02-19T01:07:43Z,42.805,6.029,13.3000,4.60035,2470.507,2022-2-19T03:09:16Z
2022-02-19T01:10:46Z,42.805,6.029,13.3003,4.60033,2470.497,2022-2-19T03:12:20Z
2022-02-19T01:13:49Z,42.805,6.029,13.2999,4.60039,2470.423,2022-2-19T03:15:23Z
2022-02-19T01:16:52Z,42.805,6.029,13.3000,4.60032,2470.497,2022-2-19T03:18:26Z
2022-02-19T01:19:55Z,42.805,6.029,13.3001,4.60040,2470.45,2022-2-19T03:21:29Z
2022-02-19T01:22:58Z,42.805,6.029,13.3001,4.60037,2470.52,2022-2-19T03:24:32Z
2022-02-19T01:26:01Z,42.805,6.029,13.3000,4.60032,2470.46,2022-2-19T03:27:35Z
2022-02-19T01:29:04Z,42.805,6.029,13.2999,4.60033,2470.474,2022-2-19T03:30:38Z
2022-02-19T01:32:08Z,42.805,6.029,13.2998,4.60033,2470.46,2022-2-19T03:33:41Z
2022-02-19T01:35:11Z,42.805,6.029,13.2997,4.60038,2470.46,2022-2-19T03:36:45Z
2022-02-19T01:38:14Z,42.805,6.029,13.3000,4.60035,2470.46,2022-2-19T03:39:48Z
2022-02-19T01:41:17Z,42.805,6.029,13.2998,4.60044,2470.483,2022-2-19T03:42:51Z
2022-02-19T01:44:20Z,42.805,6.029,13.3004,4.60035,2470.46,2022-2-19T03:45:54Z
2022-02-19T01:47:23Z,42.805,6.029,13.3000,4.60037,2470.46,2022-2-19T03:48:57Z
2022-02-19T01:50:26Z,42.805,6.029,13.3004,4.60031,2470.46,2022-2-19T03:52:00Z
2022-02-19T01:53:29Z,42.805,6.029,13.3003,4.60031,2470.46,2022-2-19T03:55:03Z
2022-02-19T01:56:33Z,42.805,6.029,13.2998,4.60033,2470.46,2022-2-19T03:58:06Z
2022-02-19T01:59:36Z,42.805,6.029,13.3004,4.60031,2470.46,2022-2-19T04:01:10Z
2022-02-19T02:02:39Z,42.805,6.029,13.2998,4.60031,2470.46,2022-2-19T04:04:13Z
2022-02-19T02:05:42Z,42.805,6.029,13.3000,4.60031,2470.483,2022-2-19T04:07:16Z
2022-02-19T02:08:45Z,42.805,6.029,13.3002,4.60032,2470.46,2022-2-19T04:10:19Z
2022-02-19T02:11:48Z,42.805,6.029,13.2998,4.60033,2470.46,2022-2-19T04:13:22Z
2022-02-19T02:14:51Z,42.805,6.029,13.3000,4.60029,2470.497,2022-2-19T04:16:25Z
2022-02-19T02:17:54Z,42.805,6.029,13.3000,4.60032,2470.46,2022-2-19T04:19:28Z
2022-02-19T02:20:58Z,42.805,6.029,13.3000,4.60033,2470.46,2022-2-19T04:22:31Z
2022-02-19T02:24:01Z,42.805,6.029,13.2996,4.60029,2470.46,2022-2-19T04:25:35Z
2022-02-19T02:27:04Z,42.805,6.029,13.2997,4.60029,2470.437,2022-2-19T04:28:38Z
2022-02-19T02:30:07Z,42.805,6.029,13.2997,4.60034,2470.474,2022-2-19T04:31:41Z
2022-02-19T02:33:10Z,42.805,6.029,13.2998,4.60029,2470.437,2022-2-19T04:34:44Z
2022-02-19T02:36:13Z,42.805,6.029,13.3000,4.60029,2470.437,2022-2-19T04:37:47Z
2022-02-19T02:39:16Z,42.805,6.029,13.2996,4.60029,2470.46,2022-2-19T04:40:50Z
2022-02-19T02:42:19Z,42.805,6.029,13.2999,4.60031,2470.437,2022-2-19T04:43:53Z
2022-02-19T02:45:23Z,42.805,6.029,13.3000,4.60029,2470.474,2022-2-19T04:46:56Z
2022-02-19T02:48:26Z,42.805,6.029,13.3000,4.60031,2470.413,2022-2-19T04:50:00Z
2022-02-19T02:51:29Z,42.805,6.029,13.2997,4.60027,2470.45,2022-2-19T04:53:03Z
2022-02-19T02:54:32Z,42.805,6.029,13.3001,4.60029,2470.413,2022-2-19T04:56:06Z
2022-02-19T02:57:35Z,42.805,6.029,13.3000,4.60029,2470.437,2022-2-19T04:59:09Z
2022-02-19T03:00:38Z,42.805,6.029,13.3000,4.60027,2470.45,2022-2-19T05:02:12Z
2022-02-19T03:03:41Z,42.805,6.029,13.2999,4.60028,2470.437,2022-2-19T05:05:15Z
2022-02-19T03:06:44Z,42.805,6.029,13.2999,4.60029,2470.46,2022-2-19T05:08:18Z
2022-02-19T03:09:47Z,42.805,6.029,13.2997,4.60034,2470.45,2022-2-19T05:11:21Z
2022-02-19T03:12:51Z,42.805,6.029,13.3002,4.60031,2470.437,2022-2-19T05:14:24Z
2022-02-19T03:15:54Z,42.805,6.029,13.2999,4.60032,2470.46,2022-2-19T05:17:28Z
2022-02-19T03:18:57Z,42.805,6.029,13.3002,4.60031,2470.483,2022-2-19T05:20:31Z
2022-02-19T03:22:00Z,42.805,6.029,13.3004,4.60034,2470.474,2022-2-19T05:23:34Z
2022-02-19T03:25:03Z,42.805,6.029,13.2999,4.60033,2470.46,2022-2-19T05:26:37Z
2022-02-19T03:28:06Z,42.805,6.029,13.2998,4.60029,2470.497,2022-2-19T05:29:40Z
2022-02-19T03:31:09Z,42.805,6.029,13.3000,4.60028,2470.46,2022-2-19T05:32:43Z
2022-02-19T03:34:12Z,42.805,6.029,13.3000,4.60028,2470.45,2022-2-19T05:35:46Z
2022-02-19T03:37:16Z,42.805,6.029,13.3004,4.60031,2470.474,2022-2-19T05:38:49Z
2022-02-19T03:40:19Z,42.805,6.029,13.3000,4.60034,2470.474,2022-2-19T05:41:53Z
2022-02-19T03:43:22Z,42.805,6.029,13.2998,4.60035,2470.483,2022-2-19T05:44:56Z
2022-02-19T03:46:25Z,42.805,6.029,13.3000,4.60036,2470.483,2022-2-19T05:47:59Z
2022-02-19T03:49:28Z,42.805,6.029,13.3000,4.60028,2470.46,2022-2-19T05:51:02Z
2022-02-19T03:52:31Z,42.805,6.029,13.3001,4.60028,2470.46,2022-2-19T05:54:05Z
2022-02-19T03:55:34Z,42.805,6.029,13.3001,4.60028,2470.483,2022-2-19T05:57:08Z
2022-02-19T03:58:37Z,42.805,6.029,13.3006,4.60034,2470.46,2022-2-19T06:00:11Z
2022-02-19T04:01:41Z,42.805,6.029,13.3005,4.60033,2470.483,2022-2-19T06:03:14Z
2022-02-19T04:04:44Z,42.805,6.029,13.3004,4.60044,2470.474,2022-2-19T06:06:18Z
2022-02-19T04:07:47Z,42.805,6.029,13.3007,4.60032,2470.46,2022-2-19T06:09:21Z
2022-02-19T04:10:50Z,42.805,6.029,13.3007,4.60033,2470.437,2022-2-19T06:12:24Z
2022-02-19T04:13:53Z,42.805,6.029,13.2998,4.60031,2470.46,2022-2-19T06:15:27Z
2022-02-19T04:16:56Z,42.805,6.029,13.2998,4.60037,2470.497,2022-2-19T06:18:30Z
2022-02-19T04:19:59Z,42.805,6.029,13.3000,4.60031,2470.507,2022-2-19T06:21:33Z
2022-02-19T04:23:02Z,42.805,6.029,13.2998,4.60029,2470.497,2022-2-19T06:24:36Z
2022-02-19T04:26:06Z,42.805,6.029,13.3000,4.60029,2470.483,2022-2-19T06:27:39Z
2022-02-19T04:29:09Z,42.805,6.029,13.2996,4.60027,2470.46,2022-2-19T06:30:43Z
2022-02-19T04:32:12Z,42.805,6.029,13.2999,4.60030,2470.52,2022-2-19T06:33:46Z
2022-02-19T04:35:15Z,42.805,6.029,13.3000,4.60027,2470.474,2022-2-19T06:36:49Z
2022-02-19T04:38:18Z,42.805,6.029,13.3000,4.60045,2470.474,2022-2-19T06:39:52Z
2022-02-19T04:41:21Z,42.805,6.029,13.3001,4.60044,2470.497,2022-2-19T06:42:55Z
2022-02-19T04:44:24Z,42.805,6.029,13.3004,4.60026,2470.46,2022-2-19T06:45:58Z
2022-02-19T04:47:27Z,42.805,6.029,13.3000,4.60026,2470.474,2022-2-19T06:49:01Z
2022-02-19T04:50:31Z,42.805,6.029,13.3001,4.60030,2470.497,2022-2-19T06:52:04Z
2022-02-19T04:53:34Z,42.805,6.029,13.3001,4.60029,2470.497,2022-2-19T06:55:08Z
2022-02-19T04:56:37Z,42.805,6.029,13.2998,4.60053,2470.52,2022-2-19T06:58:11Z
2022-02-19T04:59:40Z,42.805,6.029,13.3001,4.60029,2470.52,2022-2-19T07:01:14Z
2022-02-19T05:02:43Z,42.805,6.029,13.3000,4.60029,2470.497,2022-2-19T07:04:17Z
2022-02-19T05:05:46Z,42.805,6.029,13.2999,4.60033,2470.507,2022-2-19T07:07:20Z
2022-02-19T05:08:49Z,42.805,6.029,13.3003,4.60043,2470.483,2022-2-19T07:10:23Z
2022-02-19T05:11:52Z,42.805,6.029,13.2998,4.60031,2470.483,2022-2-19T07:13:26Z
2022-02-19T05:14:56Z,42.805,6.029,13.3000,4.60031,2470.544,2022-2-19T07:16:29Z
2022-02-19T05:17:59Z,42.805,6.029,13.2996,4.60033,2470.497,2022-2-19T07:19:33Z
2022-02-19T05:21:02Z,42.805,6.029,13.3000,4.60026,2470.553,2022-2-19T07:22:36Z
2022-02-19T05:24:05Z,42.805,6.029,13.3002,4.60028,2470.544,2022-2-19T07:25:39Z
2022-02-19T05:27:08Z,42.805,6.029,13.2998,4.60029,2470.53,2022-2-19T07:28:42Z
2022-02-19T05:30:11Z,42.805,6.029,13.3001,4.60026,2470.53,2022-2-19T07:31:45Z
2022-02-19T05:33:14Z,42.805,6.029,13.2996,4.60029,2470.516,2022-2-19T07:34:48Z
2022-02-19T05:36:17Z,42.805,6.029,13.3002,4.60031,2470.53,2022-2-19T07:37:51Z
2022-02-19T05:39:21Z,42.805,6.029,13.3003,4.60029,2470.567,2022-2-19T07:40:54Z
2022-02-19T05:42:24Z,42.805,6.029,13.2999,4.60031,2470.53,2022-2-19T07:43:58Z
2022-02-19T05:45:27Z,42.805,6.029,13.2996,4.60028,2470.553,2022-2-19T07:47:01Z
2022-02-19T05:48:30Z,42.805,6.029,13.3002,4.60031,2470.553,2022-2-19T07:50:04Z
2022-02-19T05:51:33Z,42.805,6.029,13.2998,4.60028,2470.53,2022-2-19T07:53:07Z
2022-02-19T05:54:36Z,42.805,6.029,13.3000,4.60028,2470.553,2022-2-19T07:56:10Z
2022-02-19T05:57:39Z,42.805,6.029,13.2997,4.60029,2470.553,2022-2-19T07:59:13Z
2022-02-19T06:00:42Z,42.805,6.029,13.2998,4.60031,2470.6,2022-2-19T08:02:16Z
2022-02-19T06:03:45Z,42.805,6.029,13.2998,4.60037,2470.591,2022-2-19T08:05:19Z
2022-02-19T06:06:49Z,42.805,6.029,13.2998,4.60031,2470.6,2022-2-19T08:08:22Z
2022-02-19T06:09:52Z,42.805,6.029,13.3002,4.60028,2470.577,2022-2-19T08:11:26Z
2022-02-19T06:12:55Z,42.805,6.029,13.3000,4.60033,2470.591,2022-2-19T08:14:29Z
2022-02-19T06:15:58Z,42.805,6.029,13.2996,4.60031,2470.591,2022-2-19T08:17:32Z
2022-02-19T06:19:01Z,42.805,6.029,13.3000,4.60033,2470.6,2022-2-19T08:20:35Z
2022-02-19T06:22:04Z,42.805,6.029,13.3002,4.60031,2470.6,2022-2-19T08:23:38Z
2022-02-19T06:25:07Z,42.805,6.029,13.3004,4.60033,2470.591,2022-2-19T08:26:41Z
2022-02-19T06:28:10Z,42.805,6.029,13.2998,4.60034,2470.6,2022-2-19T08:29:44Z
2022-02-19T06:31:14Z,42.805,6.029,13.3001,4.60037,2470.591,2022-2-19T08:32:47Z
2022-02-19T06:34:17Z,42.805,6.029,13.2998,4.60085,2470.6,2022-2-19T08:35:51Z
2022-02-19T06:37:20Z,42.805,6.029,13.2999,4.60037,2470.624,2022-2-19T08:38:54Z
2022-02-19T06:40:23Z,42.805,6.029,13.2998,4.60033,2470.577,2022-2-19T08:41:57Z
2022-02-19T06:43:26Z,42.805,6.029,13.2998,4.60061,2470.624,2022-2-19T08:45:00Z
2022-02-19T06:46:29Z,42.805,6.029,13.2997,4.60062,2470.6,2022-2-19T08:48:03Z
2022-02-19T06:49:32Z,42.805,6.029,13.2999,4.60032,2470.646,2022-2-19T08:51:06Z
2022-02-19T06:52:35Z,42.805,6.029,13.3002,4.60031,2470.637,2022-2-19T08:54:09Z
2022-02-19T06:55:39Z,42.805,6.029,13.3001,4.60031,2470.646,2022-2-19T08:57:12Z
2022-02-19T06:58:42Z,42.805,6.029,13.3000,4.60033,2470.6,2022-2-19T09:00:16Z
2022-02-19T07:01:45Z,42.805,6.029,13.2998,4.60032,2470.646,2022-2-19T09:03:19Z
2022-02-19T07:04:48Z,42.805,6.029,13.3000,4.60031,2470.661,2022-2-19T09:06:22Z
2022-02-19T07:07:51Z,42.805,6.029,13.3000,4.60033,2470.661,2022-2-19T09:09:25Z
2022-02-19T07:10:54Z,42.805,6.029,13.3000,4.60051,2470.646,2022-2-19T09:12:28Z
2022-02-19T07:13:57Z,42.805,6.029,13.2999,4.60045,2470.646,2022-2-19T09:15:31Z
2022-02-19T07:17:00Z,42.805,6.029,13.3000,4.60045,2470.646,2022-2-19T09:18:34Z
2022-02-19T07:20:03Z,42.805,6.029,13.3000,4.60036,2470.693,2022-2-19T09:21:37Z
2022-02-19T07:23:07Z,42.805,6.029,13.2998,4.60033,2470.67,2022-2-19T09:24:40Z
2022-02-19T07:26:10Z,42.805,6.029,13.2996,4.60044,2470.707,2022-2-19T09:27:44Z
2022-02-19T07:29:13Z,42.805,6.029,13.3000,4.60033,2470.693,2022-2-19T09:30:47Z
2022-02-19T07:32:16Z,42.805,6.029,13.3000,4.60031,2470.717,2022-2-19T09:33:50Z
2022-02-19T07:35:19Z,42.805,6.029,13.2998,4.60036,2470.693,2022-2-19T09:36:53Z
2022-02-19T07:38:22Z,42.805,6.029,13.2999,4.60041,2470.693,2022-2-19T09:39:56Z
2022-02-19T07:41:25Z,42.805,6.029,13.2999,4.60032,2470.693,2022-2-19T09:42:59Z
2022-02-19T07:44:28Z,42.805,6.029,13.3001,4.60038,2470.707,2022-2-19T09:46:02Z
2022-02-19T07:47:32Z,42.805,6.029,13.3000,4.60052,2470.67,2022-2-19T09:49:05Z
2022-02-19T07:50:35Z,42.805,6.029,13.3003,4.60052,2470.684,2022-2-19T09:52:09Z
2022-02-19T07:53:38Z,42.805,6.029,13.3000,4.60054,2470.754,2022-2-19T09:55:12Z
2022-02-19T07:56:41Z,42.805,6.029,13.2994,4.60031,2470.73,2022-2-19T09:58:15Z
2022-02-19T07:59:44Z,42.805,6.029,13.3002,4.60044,2470.73,2022-2-19T10:01:18Z
2022-02-19T08:02:47Z,42.805,6.029,13.3000,4.60038,2470.717,2022-2-19T10:04:21Z
2022-02-19T08:05:50Z,42.805,6.029,13.3111,4.60039,2470.717,2022-2-19T10:07:24Z
2022-02-19T08:08:53Z,42.805,6.029,13.3048,4.60044,2470.717,2022-2-19T10:10:27Z
2022-02-19T08:11:57Z,42.805,6.029,13.3045,4.60042,2470.754,2022-2-19T10:13:30Z
2022-02-19T08:15:00Z,42.805,6.029,13.3038,4.60077,2470.717,2022-2-19T10:16:34Z
2022-02-19T08:18:03Z,42.805,6.029,13.3082,4.60086,2470.707,2022-2-19T10:19:37Z
2022-02-19T08:21:06Z,42.805,6.029,13.3046,4.60062,2470.754,2022-2-19T10:22:40Z
2022-02-19T08:24:09Z,42.805,6.029,13.3053,4.60059,2470.717,2022-2-19T10:25:43Z
2022-02-19T08:27:12Z,42.805,6.029,13.3055,4.60072,2470.73,2022-2-19T10:28:46Z
2022-02-19T08:30:15Z,42.805,6.029,13.3054,4.60078,2470.73,2022-2-19T10:31:49Z
2022-02-19T08:33:18Z,42.805,6.029,13.3060,4.60076,2470.763,2022-2-19T10:34:52Z
2022-02-19T08:36:22Z,42.805,6.029,13.3051,4.60108,2470.73,2022-2-19T10:37:56Z
2022-02-19T08:39:25Z,42.805,6.029,13.3058,4.60122,2470.73,2022-2-19T10:40:59Z
2022-02-19T08:42:28Z,42.805,6.029,13.3063,4.60091,2470.73,2022-2-19T10:44:02Z
2022-02-19T08:45:31Z,42.805,6.029,13.3056,4.60059,2470.777,2022-2-19T10:47:05Z
2022-02-19T08:48:34Z,42.805,6.029,13.3030,4.60093,2470.768,2022-2-19T10:50:08Z
2022-02-19T08:51:37Z,42.805,6.029,13.3055,4.60122,2470.717,2022-2-19T10:53:11Z
2022-02-19T08:54:40Z,42.805,6.029,13.3063,4.60087,2470.717,2022-2-19T10:56:14Z
2022-02-19T08:57:44Z,42.805,6.029,13.3078,4.60098,2470.777,2022-2-19T10:59:17Z
2022-02-19T09:00:47Z,42.805,6.029,13.3093,4.60084,2470.74,2022-2-19T11:02:21Z
2022-02-19T09:03:50Z,42.805,6.029,13.3061,4.60078,2470.74,2022-2-19T11:05:24Z
2022-02-19T09:06:53Z,42.805,6.029,13.3070,4.60064,2470.693,2022-2-19T11:08:27Z
2022-02-19T09:09:56Z,42.805,6.029,13.3082,4.60087,2470.73,2022-2-19T11:11:30Z
2022-02-19T09:12:59Z,42.805,6.029,13.3076,4.60070,2470.754,2022-2-19T11:14:33Z
2022-02-19T09:16:02Z,42.805,6.029,13.3063,4.60064,2470.777,2022-2-19T11:17:36Z
2022-02-19T09:19:05Z,42.805,6.029,13.3063,4.60081,2470.74,2022-2-19T11:20:39Z
2022-02-19T09:22:09Z,42.805,6.029,13.3068,4.60084,2470.717,2022-2-19T11:23:42Z
2022-02-19T09:25:12Z,42.805,6.029,13.3073,4.60059,2470.73,2022-2-19T11:26:46Z
2022-02-19T09:28:15Z,42.805,6.029,13.3077,4.60071,2470.74,2022-2-19T11:29:49Z
2022-02-19T09:31:18Z,42.805,6.029,13.3067,4.60079,2470.74,2022-2-19T11:32:52Z
2022-02-19T09:34:21Z,42.805,6.029,13.3050,4.60069,2470.73,2022-2-19T11:35:55Z
2022-02-19T09:37:24Z,42.805,6.029,13.3067,4.60109,2470.754,2022-2-19T11:38:58Z
2022-02-19T09:40:27Z,42.805,6.029,13.3046,4.60079,2470.754,2022-2-19T11:42:01Z
2022-02-19T09:43:30Z,42.805,6.029,13.3046,4.60081,2470.73,2022-2-19T11:45:04Z
2022-02-19T09:46:34Z,42.805,6.029,13.3054,4.60077,2470.73,2022-2-19T11:48:07Z
2022-02-19T09:49:37Z,42.805,6.029,13.3066,4.60093,2470.73,2022-2-19T11:51:11Z
2022-02-19T09:52:40Z,42.805,6.029,13.3045,4.60088,2470.73,2022-2-19T11:54:14Z
2022-02-19T09:55:43Z,42.805,6.029,13.3025,4.60062,2470.73,2022-2-19T11:57:17Z
2022-02-19T09:58:46Z,42.805,6.029,13.3073,4.60060,2470.693,2022-2-19T12:00:20Z
2022-02-19T10:01:49Z,42.805,6.029,13.3041,4.60065,2470.754,2022-2-19T12:03:23Z
2022-02-19T10:04:52Z,42.805,6.029,13.3053,4.60076,2470.754,2022-2-19T12:06:26Z
2022-02-19T10:07:55Z,42.805,6.029,13.3049,4.60096,2470.73,2022-2-19T12:09:29Z
2022-02-19T10:10:59Z,42.805,6.029,13.3060,4.60084,2470.717,2022-2-19T12:12:32Z
2022-02-19T10:14:02Z,42.805,6.029,13.3057,4.60079,2470.707,2022-2-19T12:15:36Z
2022-02-19T10:17:05Z,42.805,6.029,13.3053,4.60079,2470.73,2022-2-19T12:18:39Z
2022-02-19T10:20:08Z,42.805,6.029,13.3056,4.60081,2470.707,2022-2-19T12:21:42Z
2022-02-19T10:23:11Z,42.805,6.029,13.3040,4.60047,2470.74,2022-2-19T12:24:45Z
2022-02-19T10:26:14Z,42.805,6.029,13.3031,4.60062,2470.717,2022-2-19T12:27:48Z
2022-02-19T10:29:17Z,42.805,6.029,13.3034,4.60059,2470.693,2022-2-19T12:30:51Z
2022-02-19T10:32:20Z,42.805,6.029,13.3039,4.60086,2470.707,2022-2-19T12:33:54Z
2022-02-19T10:35:24Z,42.805,6.029,13.3047,4.60050,2470.754,2022-2-19T12:36:57Z
2022-02-19T10:38:27Z,42.805,6.029,13.3053,4.60070,2470.707,2022-2-19T12:40:01Z
2022-02-19T10:41:30Z,42.805,6.029,13.3067,4.60086,2470.693,2022-2-19T12:43:04Z
2022-02-19T10:44:33Z,42.805,6.029,13.3043,4.60072,2470.73,2022-2-19T12:46:07Z
2022-02-19T10:47:36Z,42.805,6.029,13.3042,4.60097,2470.693,2022-2-19T12:49:10Z
2022-02-19T10:50:39Z,42.805,6.029,13.3082,4.60056,2470.73,2022-2-19T12:52:13Z
2022-02-19T10:53:42Z,42.805,6.029,13.3070,4.60084,2470.707,2022-2-19T12:55:16Z
2022-02-19T10:56:45Z,42.805,6.029,13.3041,4.60075,2470.717,2022-2-19T12:58:19Z
2022-02-19T10:59:49Z,42.805,6.029,13.3080,4.60077,2470.707,2022-2-19T13:01:22Z
2022-02-19T11:02:52Z,42.805,6.029,13.3070,4.60066,2470.707,2022-2-19T13:04:26Z
2022-02-19T11:05:55Z,42.805,6.029,13.3062,4.60067,2470.67,2022-2-19T13:07:29Z
2022-02-19T11:08:58Z,42.805,6.029,13.3069,4.60067,2470.661,2022-2-19T13:10:32Z
2022-02-19T11:12:01Z,42.805,6.029,13.3068,4.60065,2470.73,2022-2-19T13:13:35Z
2022-02-19T11:15:04Z,42.805,6.029,13.3069,4.60067,2470.707,2022-2-19T13:16:38Z
2022-02-19T11:18:07Z,42.805,6.029,13.3070,4.60057,2470.67,2022-2-19T13:19:41Z
2022-02-19T11:21:10Z,42.805,6.029,13.3058,4.60104,2470.693,2022-2-19T13:22:44Z
2022-02-19T11:24:14Z,42.805,6.029,13.3071,4.60087,2470.67,2022-2-19T13:25:48Z
2022-02-19T11:27:17Z,42.805,6.029,13.3066,4.60067,2470.646,2022-2-19T13:28:51Z
2022-02-19T11:30:20Z,42.805,6.029,13.3061,4.60053,2470.684,2022-2-19T13:31:54Z
2022-02-19T11:33:23Z,42.805,6.029,13.3082,4.60073,2470.661,2022-2-19T13:34:57Z
2022-02-19T11:36:26Z,42.805,6.029,13.3035,4.60079,2470.684,2022-2-19T13:38:00Z
2022-02-19T11:39:29Z,42.805,6.029,13.3078,4.60061,2470.707,2022-2-19T13:41:03Z
2022-02-19T11:42:32Z,42.805,6.029,13.3086,4.60069,2470.661,2022-2-19T13:44:06Z
2022-02-19T11:45:36Z,42.805,6.029,13.3092,4.60101,2470.624,2022-2-19T13:47:09Z
2022-02-19T11:48:39Z,42.805,6.029,13.3084,4.60068,2470.661,2022-2-19T13:50:13Z
2022-02-19T11:51:42Z,42.805,6.029,13.3078,4.60081,2470.67,2022-2-19T13:53:16Z
2022-02-19T11:54:45Z,42.805,6.029,13.3060,4.60074,2470.646,2022-2-19T13:56:19Z
2022-02-19T11:57:48Z,42.805,6.029,13.3064,4.60069,2470.67,2022-2-19T13:59:22Z
2022-02-19T12:00:51Z,42.805,6.029,13.3072,4.60061,2470.624,2022-2-19T14:02:25Z
2022-02-19T12:03:54Z,42.805,6.029,13.3070,4.60067,2470.624,2022-2-19T14:05:28Z
2022-02-19T12:06:57Z,42.805,6.029,13.3069,4.60074,2470.624,2022-2-19T14:08:31Z
2022-02-19T12:10:01Z,42.805,6.029,13.3074,4.60089,2470.684,2022-2-19T14:11:34Z
2022-02-19T12:13:04Z,42.805,6.029,13.3083,4.60058,2470.661,2022-2-19T14:14:38Z
2022-02-19T12:16:07Z,42.805,6.029,13.3082,4.60064,2470.6,2022-2-19T14:17:41Z
2022-02-19T12:19:10Z,42.805,6.029,13.3083,4.60078,2470.637,2022-2-19T14:20:44Z
2022-02-19T12:22:13Z,42.805,6.029,13.3073,4.60087,2470.637,2022-2-19T14:23:47Z
2022-02-19T12:25:16Z,42.805,6.029,13.3073,4.60091,2470.624,2022-2-19T14:26:50Z
2022-02-19T12:28:19Z,42.805,6.029,13.3054,4.60141,2470.6,2022-2-19T14:29:53Z
2022-02-19T12:31:22Z,42.805,6.029,13.3053,4.60134,2470.624,2022-2-19T14:32:56Z
2022-02-19T12:34:26Z,42.805,6.029,13.3006,4.60105,2470.614,2022-2-19T14:35:59Z
2022-02-19T12:37:29Z,42.805,6.029,13.3003,4.60070,2470.624,2022-2-19T14:39:03Z
2022-02-19T12:40:32Z,42.805,6.029,13.3015,4.60067,2470.624,2022-2-19T14:42:06Z
2022-02-19T12:43:35Z,42.805,6.029,13.3002,4.60058,2470.637,2022-2-19T14:45:09Z
2022-02-19T12:46:38Z,42.805,6.029,13.3004,4.60061,2470.577,2022-2-19T14:48:12Z
2022-02-19T12:49:41Z,42.805,6.029,13.3058,4.60067,2470.614,2022-2-19T14:51:15Z
2022-02-19T12:52:44Z,42.805,6.029,13.3041,4.60084,2470.614,2022-2-19T14:54:18Z
2022-02-19T12:55:47Z,42.805,6.029,13.3009,4.60089,2470.624,2022-2-19T14:57:21Z
2022-02-19T12:58:51Z,42.805,6.029,13.3063,4.60064,2470.591,2022-2-19T15:00:25Z
2022-02-19T13:01:54Z,42.805,6.029,13.3045,4.60064,2470.553,2022-2-19T15:03:28Z
2022-02-19T13:04:57Z,42.805,6.029,13.3016,4.60064,2470.591,2022-2-19T15:06:31Z
2022-02-19T13:08:00Z,42.805,6.029,13.3000,4.60152,2470.614,2022-2-19T15:09:34Z
2022-02-19T13:11:03Z,42.805,6.029,13.2996,4.60067,2470.577,2022-2-19T15:12:37Z
2022-02-19T13:14:06Z,42.805,6.029,13.3002,4.60054,2470.614,2022-2-19T15:15:40Z
2022-02-19T13:17:09Z,42.805,6.029,13.3000,4.60057,2470.6,2022-2-19T15:18:43Z
2022-02-19T13:20:12Z,42.805,6.029,13.2998,4.60058,2470.591,2022-2-19T15:21:46Z
2022-02-19T13:23:16Z,42.805,6.029,13.2997,4.60064,2470.577,2022-2-19T15:24:50Z
2022-02-19T13:26:19Z,42.805,6.029,13.3039,4.60082,2470.6,2022-2-19T15:27:53Z
2022-02-19T13:29:22Z,42.805,6.029,13.3046,4.60059,2470.614,2022-2-19T15:30:56Z
2022-02-19T13:32:25Z,42.805,6.029,13.3091,4.60130,2470.553,2022-2-19T15:33:59Z
2022-02-19T13:35:28Z,42.805,6.029,13.3083,4.60114,2470.567,2022-2-19T15:37:02Z
2022-02-19T13:38:31Z,42.805,6.029,13.3055,4.60067,2470.567,2022-2-19T15:40:05Z
2022-02-19T13:41:34Z,42.805,6.029,13.3054,4.60103,2470.577,2022-2-19T15:43:08Z
2022-02-19T13:44:37Z,42.805,6.029,13.3129,4.60095,2470.577,2022-2-19T15:46:11Z
2022-02-19T13:47:41Z,42.805,6.029,13.3019,4.60066,2470.544,2022-2-19T15:49:14Z
2022-02-19T13:50:44Z,42.805,6.029,13.3000,4.60112,2470.567,2022-2-19T15:52:18Z
2022-02-19T13:53:47Z,42.805,6.029,13.2998,4.60079,2470.577,2022-2-19T15:55:21Z
2022-02-19T13:56:50Z,42.805,6.029,13.2997,4.60057,2470.6,2022-2-19T15:58:24Z
2022-02-19T13:59:53Z,42.805,6.029,13.2997,4.60058,2470.567,2022-2-19T16:01:27Z
2022-02-19T14:02:56Z,42.805,6.029,13.2997,4.60044,2470.591,2022-2-19T16:04:30Z
2022-02-19T14:05:59Z,42.805,6.029,13.2996,4.60052,2470.553,2022-2-19T16:07:33Z
2022-02-19T14:09:02Z,42.805,6.029,13.3000,4.60049,2470.553,2022-2-19T16:10:36Z
2022-02-19T14:12:06Z,42.805,6.029,13.3001,4.60057,2470.567,2022-2-19T16:13:40Z
2022-02-19T14:15:09Z,42.805,6.029,13.2998,4.60042,2470.577,2022-2-19T16:16:43Z
2022-02-19T14:18:12Z,42.805,6.029,13.3003,4.60036,2470.553,2022-2-19T16:19:46Z
2022-02-19T14:21:15Z,42.805,6.029,13.2998,4.60040,2470.567,2022-2-19T16:22:49Z
2022-02-19T14:24:18Z,42.805,6.029,13.3002,4.60033,2470.577,2022-2-19T16:25:52Z
2022-02-19T14:27:21Z,42.805,6.029,13.2999,4.60035,2470.567,2022-2-19T16:28:55Z
2022-02-19T14:30:24Z,42.805,6.029,13.2997,4.60035,2470.567,2022-2-19T16:31:58Z
2022-02-19T14:33:28Z,42.805,6.029,13.2999,4.60046,2470.544,2022-2-19T16:35:01Z
2022-02-19T14:36:31Z,42.805,6.029,13.2995,4.60033,2470.577,2022-2-19T16:38:05Z
2022-02-19T14:39:34Z,42.805,6.029,13.2998,4.60032,2470.507,2022-2-19T16:41:08Z
2022-02-19T14:42:37Z,42.805,6.029,13.2996,4.60034,2470.52,2022-2-19T16:44:11Z
2022-02-19T14:45:40Z,42.805,6.029,13.2995,4.60033,2470.567,2022-2-19T16:47:14Z
2022-02-19T14:48:43Z,42.805,6.029,13.2998,4.60036,2470.553,2022-2-19T16:50:17Z
2022-02-19T14:51:46Z,42.805,6.029,13.2997,4.60037,2470.553,2022-2-19T16:53:20Z
2022-02-19T14:54:49Z,42.805,6.029,13.2998,4.60042,2470.53,2022-2-19T16:56:23Z
2022-02-19T14:57:53Z,42.805,6.029,13.3000,4.60032,2470.507,2022-2-19T16:59:26Z
2022-02-19T15:00:56Z,42.805,6.029,13.2994,4.60033,2470.539,2022-2-19T17:02:30Z
2022-02-19T15:03:59Z,42.805,6.029,13.2998,4.60031,2470.507,2022-2-19T17:05:33Z
2022-02-19T15:07:02Z,42.805,6.029,13.3000,4.60035,2470.567,2022-2-19T17:08:36Z
2022-02-19T15:10:05Z,42.805,6.029,13.2996,4.60033,2470.544,2022-2-19T17:11:39Z
2022-02-19T15:13:08Z,42.805,6.029,13.2996,4.60040,2470.567,2022-2-19T17:14:42Z